Regional Weather Roundup
Issued by NWS

Home | Current Version | Previous Version | Text Only | Print | Product List | Glossary Off
Versions: 1 2 3 4 5 6 7 8 9 10 11 12 13 14 15 16 17 18 19 20 21 22 23 24 25 26 27 28 29 30 31 32 33 34 35 36 37 38 39 40 41 42 43 44 45 46 47 48 49 50

000
ASUS44 KOUN 181410
RWROK

WEATHER ROUNDUP FOR OKLAHOMA
NATIONAL WEATHER SERVICE NORMAN OK
800 AM CST THU DEC 18 2014

NOTE: "FAIR" INDICATES FEW OR NO CLOUDS BELOW 12,000 FEET WITH NO
      SIGNIFICANT WEATHER AND/OR OBSTRUCTIONS TO VISIBILITY.

OKZ001>007-009>012-014-015-017-181500-
NORTHWEST OKLAHOMA AND THE PANHANDLE

CITY           SKY/WX    TMP DP  RH WIND       PRES   REMARKS
GAGE           CLOUDY    36  35  96 NE6       30.11R FOG     WCI  31
ENID/WOODRING  CLOUDY    37  37 100 NE3       30.14R FOG
$$

OKZ016-021>023-033>039-044-045-181500-
SOUTHWEST OKLAHOMA

CITY           SKY/WX    TMP DP  RH WIND       PRES   REMARKS
LAWTON/REGL    CLOUDY    40  38  93 E3        30.13R FOG
LAWTON/FT SILL CLOUDY    39  39 100 E3        30.12R FOG
FREDERICK      CLOUDY    40  39  97 E8        30.09R FOG     WCI  34
CLINTON        CLOUDY    39  37  92 E5        30.12R FOG
HOBART         CLOUDY    39  38  96 E6        30.13R FOG     WCI  35
ALTUS AFB      CLOUDY    39  39 100 NE5       30.12R FOG
$$

OKZ018>020-024>031-181500-
CENTRAL OKLAHOMA

CITY           SKY/WX    TMP DP  RH WIND       PRES   REMARKS
OKLAHOMA CITY  DRIZZLE   40  37  89 E5        30.13S FOG
OKC/WILEY POST CLOUDY    40  38  93 SE3       30.14R FOG
OKC/TINKER AFB CLOUDY    38  37  96 E6        30.13S FOG     WCI  34
STILLWATER     CLOUDY    38  37  97 SE5       30.16R FOG     WCI  34
GUTHRIE        CLOUDY    39  38  96 CALM      30.16R FOG
$$

OKZ008-013-054>072-181500-
NORTHEAST OKLAHOMA

CITY           SKY/WX    TMP DP  RH WIND       PRES   REMARKS
TULSA          CLOUDY    37  37 100 SE7       30.19R FOG     WCI  32
TULSA/JONES    CLOUDY    37  36  96 SE3       30.19R
PONCA CITY     FOG       36  35  96 E5        30.17R VSB 1   WCI  32
BARTLESVILLE   FOG       35  35 100 CALM      30.20S VSB 3/4
MUSKOGEE       CLOUDY    37  35  92 SE7       30.20S FOG     WCI  32
$$

OKZ032-040>043-046>053-073>077-181500-
SOUTH CENTRAL/SOUTHEAST OKLAHOMA

CITY           SKY/WX    TMP DP  RH WIND       PRES   REMARKS
ARDMORE/DWNTWN CLOUDY    39  37  93 CALM      30.15S FOG
MCALESTER      CLOUDY    41  40  96 CALM      30.18R FOG
$$




USA.gov is the U.S. government's official web portal to all federal, state and local government web resources and services.